Boonton, New Jersey, United States (07005)
Lat: 40.90N, Lon: 74.41W
Wx Zone: NJZ008
Local Info
Past Weather Observations for Sunday, October 26, 2014

NOTE: This archive is for the closest National Weather Service station to Boonton. Information may differ from the station used for current weather conditions.

Click here for Long-term Archive

Time Weather Temperature Dewpoint Humidity Pressure Winds Precip Visibility
23:53
Overcast
55°F / 13°C 36°F / 2°C 47% 29.86 in
(1011 mb)
WNW 9.2 mph
(WNW 15 kph)
- 10SM
22:53
Overcast
55°F / 13°C 36°F / 2°C 47% 29.86 in
(1011 mb)
NW 10.4 mph
(NW 17 kph)
- 10SM
21:53
Overcast
55°F / 13°C 36°F / 2°C 47% 29.86 in
(1011 mb)
NW 8.1 mph
(NW 13 kph)
- 10SM
20:53
Overcast
55°F / 13°C 36°F / 2°C 47% 29.83 in
(1010 mb)
NW 9.2 mph
(NW 15 kph)
- 10SM
19:53
Overcast
55°F / 13°C 36°F / 2°C 47% 29.83 in
(1010 mb)
WNW 9.2 mph
(WNW 15 kph)
- 10SM
18:53
Overcast
55°F / 13°C 36°F / 2°C 47% 29.8 in
(1009 mb)
NW 9.2 mph
(NW 15 kph)
- 10SM
17:53
Overcast
55°F / 13°C 36°F / 2°C 47% 29.77 in
(1008 mb)
NW 16.1 mph
(NW 26 kph)
- 10SM
16:53
Overcast
55°F / 13°C 36°F / 2°C 47% 29.74 in
(1007 mb)
NW 12.7 mph
(NW 20 kph)
- 10SM
15:53
Overcast
57°F / 14°C 36°F / 2°C 44% 29.71 in
(1006 mb)
NNW 12.7 mph
(NNW 20 kph)
- 10SM
14:53
Overcast
57°F / 14°C 34°F / 1°C 41% 29.68 in
(1005 mb)
NNW 13.8 mph
(NNW 22 kph)
- 10SM
13:53
Overcast
59°F / 15°C 34°F / 1°C 39% 29.65 in
(1004 mb)
NW 16.1 mph
(NW 26 kph)
- 10SM
12:53
Overcast
61°F / 16°C 34°F / 1°C 36% 29.65 in
(1004 mb)
NW 13.8 mph
(NW 22 kph)
- 10SM
11:53
Mostly Cloudy
59°F / 15°C 34°F / 1°C 39% 29.65 in
(1004 mb)
NW 8.1 mph
(NW 13 kph)
- 10SM
10:53
Overcast
57°F / 14°C 34°F / 1°C 41% 29.65 in
(1004 mb)
NW 11.5 mph
(NW 19 kph)
- 10SM
09:53
Mostly Cloudy
57°F / 14°C 34°F / 1°C 41% 29.65 in
(1004 mb)
NW 17.3 mph
(NW 28 kph)
- 10SM
08:53
Mostly Cloudy
57°F / 14°C 34°F / 1°C 41% 29.65 in
(1004 mb)
W 11.5 mph
(W 19 kph)
- 10SM
07:53
Clear
54°F / 12°C 36°F / 2°C 51% 29.65 in
(1004 mb)
NW 8.1 mph
(NW 13 kph)
- 10SM
06:53
Clear
50°F / 10°C 37°F / 3°C 62% 29.65 in
(1004 mb)
SSW 3.5 mph
(SSW 6 kph)
- 10SM
05:53
Clear
52°F / 11°C 37°F / 3°C 58% 29.62 in
(1003 mb)
WNW 4.6 mph
(WNW 7 kph)
- 10SM
04:53
Clear
52°F / 11°C 37°F / 3°C 58% 29.62 in
(1003 mb)
NW 6.9 mph
(NW 11 kph)
- 10SM
03:53
Clear
52°F / 11°C 43°F / 6°C 72% 29.62 in
(1003 mb)
NW 5.8 mph
(NW 9 kph)
- 10SM
02:53
Clear
50°F / 10°C 46°F / 8°C 88% 29.56 in
(1001 mb)
Calm - 9SM
01:53
Clear
52°F / 11°C 46°F / 8°C 82% 29.56 in
(1001 mb)
Calm - 10SM
00:53
Mostly Cloudy
55°F / 13°C 48°F / 9°C 77% 29.56 in
(1001 mb)
Calm 0.00 in
(0.00 mm)
10SM
Time Weather Temperature Dewpoint Humidity Pressure Winds Precip Visibility


Weather for websites

WeatherForYou.com, LLC is not responsible for any damages or problems caused by this service. Current weather conditions are obtained from the closest station including government and personal stations which may have varying degrees of accuracy. Weather forecasts are derived from the NOAA NDFD. Like all things, this site belongs to Jesus Christ... He just trusts me to maintain it. If you have any questions or comments email webmaster@weatherforyou.com

Copyright © 2014, WeatherForYou.com LLC. All rights reserved.